Weather History for V.C. Bird, Antigua

Change the Weather History Date:

Tuesday, October 1, 2013

  Actual Average Record
Temperature  
Mean Temperature 84 °F -  
Max Temperature 88 °F 85 °F 89 °F (2005)
Min Temperature 80 °F 76 °F 71 °F (2007)
Cooling Degree Days 19    
Growing Degree Days 34 (Base 50)    
Moisture  
Dew Point 74 °F    
Average Humidity 70    
Maximum Humidity 84    
Minimum Humidity 60    
Precipitation  
Precipitation 0.00 in - - ()
Sea Level Pressure  
Sea Level Pressure 29.96 in    
Wind  
Wind Speed 9 mph ()    
Max Wind Speed 16 mph    
Max Gust Speed -    
Visibility 7.9 miles    
Events Rain    
Averages and records for this station are not official NWS values.
T = Trace of Precipitation, MM = Missing Value Source: Averaged Metar Reports

Daily Weather History Graph

Daily Weather History Graph

Search for Another Location

Airport:

Trip Planner

Search our weather history database for the weather conditions in past years. The results will help you decide how hot, cold, wet, or windy it might be!

Date:

Astronomy

Oct. 01, 2013 Rise Set
Actual Time 5:57 AM AST 5:55 PM AST
Civil Twilight 5:35 AM AST 6:17 PM AST
Nautical Twilight 5:10 AM AST 6:42 PM AST
Astronomical Twilight 4:45 AM AST 7:07 PM AST
Moon 2:53 AM AST (10/1) 3:35 PM AST (10/1)
Length of Visible Light 12h 41m
Length of Day
11h 58m
Waning Crescent, 12% of the Moon is Illuminated
Oct 1
Waning Crescent
Oct 4
New
Oct 11
First Quarter
Oct 18
Full
Oct 26
Last Quarter

Hourly Weather History & Observations

Time (AST) Temp. Heat Index Dew Point Humidity Pressure Visibility Wind Dir Wind Speed Gust Speed Precip Events Conditions
12:00 AM 82.4 °F 89.5 °F 75.2 °F 79% 30.01 in 6.2 mi East 6.9 mph - N/A   Scattered Clouds
1:00 AM 82.4 °F 88.2 °F 73.4 °F 74% 29.98 in 6.2 mi East 6.9 mph - N/A   Scattered Clouds
2:00 AM 82 °F - 73 °F 68% 29.99 in 14 mi ENE 8.1 mph - -   Widespread Dust
2:00 AM 82.4 °F 88.2 °F 73.4 °F 74% 29.98 in 6.2 mi ENE 8.1 mph - N/A   Partly Cloudy
3:00 AM 82.4 °F 88.2 °F 73.4 °F 74% 29.95 in 6.2 mi ENE 8.1 mph - N/A   Partly Cloudy
4:00 AM 80.6 °F 86.2 °F 75.2 °F 84% 29.95 in 6.2 mi NE 8.1 mph - N/A Rain Light Rain Showers
5:00 AM 82.4 °F 88.2 °F 73.4 °F 74% 29.98 in 6.2 mi East 6.9 mph - N/A   Scattered Clouds
6:00 AM 82.4 °F 88.2 °F 73.4 °F 74% 29.98 in 6.2 mi ENE 8.1 mph - N/A   Scattered Clouds
7:00 AM 82.4 °F 88.2 °F 73.4 °F 74% 29.98 in 6.2 mi ENE 10.4 mph - N/A   Scattered Clouds
8:00 AM 85 °F - 75 °F 66% 29.99 in 14 mi ENE 11.5 mph - -   Widespread Dust
8:00 AM 86.0 °F 95.1 °F 75.2 °F 70% 29.98 in 6.2 mi ENE 11.5 mph - N/A   Mostly Cloudy
9:00 AM 86.0 °F 95.1 °F 75.2 °F 70% 30.01 in 6.2 mi ENE 16.1 mph - N/A   Scattered Clouds
10:00 AM 87.8 °F 95.6 °F 73.4 °F 62% 30.01 in 6.2 mi ENE 13.8 mph - N/A   Mostly Cloudy
11:00 AM 87 °F - 75 °F 60% 30.01 in 14 mi ENE 13.8 mph - -   Widespread Dust
11:00 AM 86.0 °F 95.1 °F 75.2 °F 70% 30.01 in 6.2 mi ENE 13.8 mph - N/A   Mostly Cloudy
12:00 PM 87.8 °F 99.7 °F 77.0 °F 70% 29.98 in 6.2 mi ENE 12.7 mph - N/A   Scattered Clouds
1:00 PM 87.8 °F 97.6 °F 75.2 °F 66% 29.95 in 6.2 mi ENE 15.0 mph - N/A   Scattered Clouds
2:00 PM 86 °F - 75 °F 62% 29.93 in 15 mi East 13.8 mph - -   Widespread Dust
2:00 PM 86.0 °F 95.1 °F 75.2 °F 70% 29.92 in 6.2 mi East 13.8 mph - N/A   Scattered Clouds
3:00 PM 84.2 °F 89.6 °F 71.6 °F 66% 29.92 in 6.2 mi East 11.5 mph - N/A   Scattered Clouds
4:00 PM 84.2 °F 92.3 °F 75.2 °F 74% 29.92 in 6.2 mi ENE 10.4 mph - N/A   Scattered Clouds
5:00 PM 84 °F - 74 °F 66% 29.93 in 16 mi East 10.4 mph - -   Widespread Dust
5:00 PM 84.2 °F 92.3 °F 75.2 °F 74% 29.92 in 6.2 mi East 10.4 mph - N/A   Scattered Clouds
6:00 PM 84.2 °F 90.9 °F 73.4 °F 70% 29.92 in 6.2 mi ENE 11.5 mph - N/A   Mostly Cloudy
7:00 PM 82.4 °F 88.2 °F 73.4 °F 74% 29.92 in 6.2 mi East 10.4 mph - N/A   Partly Cloudy
8:00 PM 83 °F - 72 °F 61% 29.96 in 16 mi East 10.4 mph - -   Widespread Dust
8:00 PM 82.4 °F 87.2 °F 71.6 °F 70% 29.95 in 6.2 mi East 10.4 mph - N/A   Partly Cloudy
9:00 PM 82.4 °F 87.2 °F 71.6 °F 70% 29.95 in 6.2 mi East 10.4 mph - N/A   Scattered Clouds
10:00 PM 82.4 °F 88.2 °F 73.4 °F 74% 29.95 in 6.2 mi East 10.4 mph - N/A   Scattered Clouds
11:00 PM 82.4 °F 88.2 °F 73.4 °F 74% 29.98 in 6.2 mi East 11.5 mph - N/A   Partly Cloudy